GFSNW_prec_cthk_201.txt.gz
RH
37 41 47 45 47 40 36 40 39 32 51 63 64 66 62 59 56 68 80 81 80 81 80 89 97 95 87 84 88 98 97 98 93 68 61 61 79 97 97 91 96 97 97 90
32 31 38 46 47 55 46 51 42 37 67 70 67 62 58 55 52 49 66 71 78 74 76 79 70 85 82 88 90 95 96 98 96 76 70 88 94 97 98 99 95 95 96 86
40 39 36 32 48 54 64 56 56 51 55 50 59 62 61 57 48 48 45 48 53 63 74 77 76 63 60 75 86 95 98 96 84 79 62 73 87 80 83 93 96 92 87 73
52 51 50 48 37 53 67 62 54 54 66 62 62 68 63 57 55 50 61 63 58 68 83 83 71 71 66 67 68 84 92 90 84 78 71 68 67 66 70 73 66 80 59 63
54 64 68 68 66 64 68 73 62 58 55 53 58 67 72 73 64 72 64 69 68 75 80 85 84 87 87 75 69 89 92 86 79 87 80 71 65 55 52 42 45 48 44 44
42 42 43 57 77 86 82 70 71 79 68 70 75 62 61 57 65 69 73 78 78 73 59 54 58 64 74 80 94 87 98 98 95 89 65 63 62 42 33 32 33 32 39 34
52 52 55 54 68 88 90 83 87 90 73 76 76 76 82 78 81 79 77 86 88 82 87 90 85 75 60 63 85 95 97 90 90 90 72 85 31 29 46 56 50 67 67 59
73 72 63 62 77 90 99 98 98 96 84 83 78 96 93 85 81 82 78 78 79 90 90 91 90 85 76 64 65 71 70 76 88 89 70 59 43 48 62 70 60 69 62 56
84 85 66 69 81 95 99 97 98 99 97 80 81 79 75 79 83 78 69 70 85 89 89 91 89 73 60 55 49 57 66 74 89 95 93 82 71 67 67 72 79 79 71 71
75 92 95 91 89 96 98 98 97 99 98 84 85 92 89 90 91 90 87 75 87 85 83 85 82 75 64 67 63 59 65 77 86 90 92 90 88 79 69 94 88 75 74 68
72 71 89 94 88 93 96 96 97 95 94 93 87 87 83 84 95 97 97 93 94 92 92 90 83 80 83 86 90 92 90 93 94 94 96 95 70 72 70 68 80 76 68 71
66 82 85 87 87 94 90 95 95 96 91 85 88 81 84 85 86 88 92 94 96 95 96 93 87 90 96 95 97 81 95 82 78 69 64 50 57 57 59 54 61 67 59 67
55 63 78 88 74 76 92 95 85 90 92 83 74 71 61 65 75 82 79 75 76 82 86 87 82 84 77 82 80 70 65 60 64 54 47 44 52 49 49 50 47 47 55 65
62 58 63 72 77 81 83 73 74 78 91 87 75 74 76 72 74 66 63 57 56 52 69 86 83 81 63 65 64 63 55 51 55 54 51 52 59 54 40 39 40 47 52 63
77 72 70 68 64 66 70 76 77 80 91 95 86 76 66 59 55 55 55 54 58 62 67 80 80 74 70 65 55 50 51 62 68 70 59 63 59 52 42 38 39 48 57 61
78 80 81 81 81 79 78 75 74 74 85 88 96 86 69 62 52 53 59 68 72 69 73 78 75 74 77 72 61 57 59 58 62 62 62 62 54 49 48 39 40 49 54 64
74 73 73 73 73 72 72 77 75 74 80 85 81 88 87 65 61 57 66 72 73 79 79 78 69 62 67 68 68 64 66 66 64 67 67 63 63 57 46 46 42 49 53 59
62 67 70 70 69 68 70 66 66 71 76 80 85 83 82 74 62 73 78 83 73 70 70 66 64 62 63 66 69 69 73 74 75 77 79 73 70 69 59 49 46 46 46 56
52 51 56 58 60 58 62 64 69 75 75 71 69 80 91 89 83 81 71 67 64 60 69 67 65 71 79 77 81 80 81 81 74 63 74 62 70 69 69 64 57 55 46 55
43 55 71 55 51 46 49 56 58 65 76 77 76 69 85 87 85 85 70 66 70 84 81 80 80 82 78 81 82 81 81 73 72 70 80 74 66 80 84 75 63 54 49 50
39 47 59 57 51 55 66 62 61 65 74 74 71 75 85 79 86 79 57 57 72 84 95 87 92 97 91 85 82 83 79 78 81 79 75 81 84 84 80 81 75 65 59 51
65 63 63 58 56 60 70 68 66 65 79 90 79 74 78 77 65 54 58 77 80 79 77 82 95 88 80 80 75 74 75 73 76 84 80 71 73 77 79 78 84 87 75 56
53 82 91 70 69 68 73 81 73 77 73 71 71 73 68 75 73 78 86 88 83 78 89 87 98 81 73 77 76 73 71 67 68 77 82 70 68 66 60 52 65 76 83 76
56 61 77 83 80 68 73 79 83 83 81 77 68 67 72 84 90 91 92 84 86 83 86 87 94 80 73 75 75 71 68 66 61 61 78 87 86 83 92 80 66 68 74 70
57 56 66 76 74 77 78 76 68 61 64 71 78 81 81 90 95 92 86 88 87 80 84 92 95 82 74 71 70 68 67 64 61 56 60 73 85 95 96 92 87 72 69 69
55 47 49 57 77 84 85 83 83 81 79 80 88 91 85 88 94 92 88 83 84 94 97 95 88 83 81 75 68 64 62 61 57 55 56 61 68 81 94 97 96 90 83 89
44 45 49 63 75 81 83 82 77 76 82 94 98 98 90 87 95 95 88 92 93 94 92 88 84 82 76 69 64 62 59 59 56 53 55 60 63 67 71 81 96 98 98 97

GFSNW_prec_cthk_204.txt.gz
RH
40 36 41 49 59 62 51 41 45 31 42 55 60 58 53 58 75 80 95 97 93 95 91 96 96 90 81 83 88 94 94 97 94 81 73 76 80 87 91 97 97 97 96 82
40 39 36 32 46 62 63 54 47 36 76 71 64 60 60 61 57 59 66 83 88 97 96 96 94 87 80 84 85 93 96 98 97 86 82 88 86 89 95 94 97 95 97 78
60 58 52 46 36 48 69 66 62 56 53 57 66 70 64 66 64 66 57 61 72 78 79 84 80 81 77 80 86 93 97 98 87 84 66 71 90 96 99 96 94 86 84 73
49 57 68 73 67 54 63 70 65 59 68 58 57 61 59 57 64 57 57 58 60 68 73 70 66 71 72 67 65 74 94 92 92 87 75 74 73 74 87 83 75 82 57 63
32 34 38 49 78 91 89 78 70 62 58 59 65 74 72 74 68 73 71 71 67 71 77 80 79 73 70 65 63 75 91 90 91 94 74 69 77 78 71 65 56 58 54 50
45 46 48 48 52 84 97 84 85 84 71 67 68 61 58 55 65 64 70 78 82 80 74 70 68 66 61 63 66 74 84 91 96 94 87 91 91 68 62 47 38 43 44 38
56 65 71 74 68 74 86 98 94 95 88 86 76 72 74 77 77 79 66 62 67 68 78 83 81 79 79 68 61 64 72 82 98 93 90 97 64 58 56 58 59 63 64 59
72 73 83 85 78 79 91 91 99 98 94 85 81 81 81 77 82 83 78 73 71 72 84 98 95 94 85 71 67 69 66 78 96 96 93 76 61 58 64 67 63 62 64 59
64 68 81 91 80 67 87 93 97 99 97 82 84 89 85 86 85 77 72 72 77 77 90 98 96 84 76 66 56 51 69 76 82 97 97 90 76 67 62 66 68 67 67 62
59 74 83 88 92 92 96 98 96 99 99 87 90 92 94 95 92 87 85 91 84 82 98 98 92 79 67 68 60 53 69 79 82 87 96 94 75 65 60 86 73 60 66 65
64 77 86 85 89 92 93 98 96 94 91 86 94 92 89 91 88 92 89 97 94 95 97 97 92 87 84 83 79 88 87 87 93 94 96 91 63 64 62 54 51 44 52 56
54 69 80 71 82 87 87 92 94 98 95 85 87 87 86 86 93 98 97 97 95 98 97 92 92 90 89 90 95 85 89 84 84 79 71 57 51 48 46 45 46 43 47 48
59 62 78 76 75 86 92 95 94 97 96 88 82 75 77 75 73 83 94 89 80 87 90 89 86 85 81 87 85 74 66 65 67 58 52 50 47 48 49 43 39 37 39 42
70 69 66 67 77 79 74 75 84 86 87 89 73 66 66 64 70 79 82 83 64 58 62 70 75 81 68 67 64 64 61 55 55 55 52 50 52 54 53 47 41 39 35 38
75 79 79 73 72 73 73 76 76 79 95 96 83 76 75 71 74 75 70 64 58 57 60 65 71 75 72 67 62 59 58 58 63 63 57 57 50 50 54 51 45 44 37 37
70 72 74 78 77 75 81 80 74 77 86 87 92 83 80 69 58 53 56 64 74 72 71 67 65 69 77 76 70 65 63 63 65 64 64 65 63 62 62 60 54 47 39 36
58 64 68 68 69 68 68 74 73 72 75 81 80 88 91 83 69 59 63 75 82 84 85 82 77 74 71 66 64 62 61 63 67 70 69 70 74 71 68 62 56 53 42 41
45 48 53 60 63 63 66 66 67 72 73 78 80 82 82 84 73 75 76 84 78 72 71 65 64 64 66 66 62 66 70 73 75 77 78 71 65 65 62 62 60 56 43 40
36 37 47 55 52 47 49 55 64 70 77 78 75 73 82 79 83 82 83 73 65 59 66 74 73 67 67 67 69 72 72 71 68 70 66 66 75 70 70 68 69 64 49 43
38 37 46 49 54 50 54 64 62 65 73 74 77 72 77 82 89 87 79 67 59 65 74 86 90 79 67 71 75 76 72 71 70 72 72 68 74 79 75 80 83 75 60 49
46 52 53 54 49 51 60 64 59 74 88 89 89 90 88 87 82 81 74 57 56 80 86 88 91 88 80 83 76 72 69 67 67 71 73 71 68 75 79 74 78 80 68 55
30 40 57 73 56 57 66 67 58 68 84 84 83 78 73 78 73 64 63 65 76 83 81 82 84 84 80 76 75 71 70 65 61 60 73 70 65 64 61 60 68 83 85 69
33 47 63 69 74 69 71 85 85 86 86 86 85 77 71 71 81 86 83 84 85 79 84 82 79 82 76 72 73 70 68 66 64 60 59 71 82 77 70 72 62 52 75 77
43 50 54 62 73 73 84 87 84 74 69 67 66 72 71 75 86 92 94 86 86 86 83 75 80 82 70 69 70 71 71 66 63 59 56 60 68 83 86 80 83 64 64 83
49 48 51 60 67 74 82 87 86 83 80 77 71 72 82 87 92 94 91 91 90 81 75 80 83 88 77 73 74 74 72 64 60 57 54 57 61 68 90 87 78 73 67 76
48 44 42 42 48 62 69 79 84 83 83 79 85 89 90 92 93 94 92 88 84 82 89 96 96 94 85 79 77 74 68 63 60 57 55 55 58 62 68 93 93 84 73 70
39 36 37 40 43 55 65 68 74 79 77 81 84 98 95 87 94 95 95 97 95 95 94 95 92 87 84 80 77 75 71 66 63 59 56 58 58 62 63 70 87 98 96 89

GFSNW_prec_cthk_210.txt.gz
RH
55 54 50 47 42 45 47 60 63 55 53 53 56 51 55 56 58 72 88 87 88 92 97 96 98 96 91 90 95 96 94 97 96 94 95 93 98 97 97 97 97 97 96 95
47 47 58 67 69 69 64 60 58 56 64 64 67 61 51 54 54 61 64 77 95 97 98 93 89 93 92 96 97 97 98 98 97 94 88 92 94 95 96 97 97 95 96 89
34 35 38 43 58 77 82 77 75 67 66 61 58 71 78 77 70 66 71 72 78 88 91 93 93 90 86 86 88 90 94 98 97 95 91 91 92 94 95 94 96 92 89 82
41 42 41 38 38 52 88 89 78 76 72 68 66 61 65 86 90 85 84 80 74 76 80 88 88 87 86 82 79 84 93 97 97 91 90 93 88 89 94 96 85 90 78 78
39 42 51 53 57 65 72 91 97 98 89 79 84 79 73 62 64 63 58 72 74 75 76 75 75 79 81 81 76 79 86 87 88 85 76 79 88 83 86 89 84 78 79 74
42 48 56 63 69 87 90 85 82 86 93 94 96 83 83 71 72 69 68 70 67 65 63 66 62 63 66 69 71 72 75 75 80 70 66 76 84 62 62 62 61 66 75 59
46 51 54 56 64 78 91 89 98 99 86 87 85 92 89 86 83 72 68 66 65 57 69 68 67 68 66 64 63 69 68 72 81 78 76 80 43 43 46 56 60 65 69 67
48 52 59 68 83 90 90 95 99 99 95 88 82 84 96 93 90 91 84 62 57 55 60 66 68 68 73 63 61 73 81 86 86 87 82 69 56 53 56 55 52 62 66 64
44 46 55 69 76 88 97 96 98 98 98 82 85 88 88 94 87 83 75 72 72 77 82 86 85 76 69 64 60 75 83 88 91 90 90 85 63 59 59 63 64 59 63 56
47 51 57 62 68 81 89 88 86 92 97 95 89 90 90 87 86 89 85 82 84 85 94 96 93 86 93 87 75 88 93 95 89 88 87 71 61 58 57 70 67 58 56 52
54 55 59 68 74 76 79 84 91 90 93 94 92 93 88 85 88 95 91 88 93 95 96 92 91 91 90 93 87 84 80 83 79 79 82 74 60 66 70 68 54 52 50 48
67 64 62 67 70 77 80 83 87 94 95 87 83 82 82 83 87 88 97 97 98 98 98 93 96 97 97 90 95 85 85 73 73 73 72 71 70 66 59 56 51 50 48 46
66 67 65 67 69 68 69 81 84 88 92 81 80 78 82 84 85 91 98 98 98 95 91 98 98 93 95 95 84 76 73 68 74 71 64 61 55 53 52 49 47 46 46 41
58 64 65 66 66 70 70 74 82 92 94 93 84 81 79 78 82 84 85 87 89 95 87 79 88 87 78 78 71 68 67 65 62 60 54 50 50 53 51 44 43 42 40 41
44 55 59 60 62 65 70 71 77 82 87 92 88 89 88 83 75 78 82 88 91 94 82 75 66 63 67 64 60 57 64 62 64 61 57 56 51 52 52 50 50 50 51 49
35 41 47 58 59 59 62 70 71 72 75 79 80 79 93 79 73 82 85 78 78 70 68 69 62 55 60 64 62 56 65 69 68 65 62 60 55 56 63 67 72 63 57 54
33 31 35 37 50 54 55 58 62 67 70 74 78 80 86 91 74 60 56 64 72 76 79 82 78 73 71 66 63 63 66 65 65 61 58 58 64 65 65 63 61 62 63 59
30 34 31 39 44 50 50 51 56 64 71 73 74 74 80 89 89 84 83 85 84 84 82 73 66 63 66 61 49 56 56 56 60 64 65 65 68 69 70 70 69 67 69 68
20 27 40 44 47 50 54 51 55 58 63 67 75 78 81 76 86 86 82 73 79 75 74 66 60 61 68 57 55 54 55 64 69 66 62 62 68 63 64 68 70 68 72 75
17 20 31 47 51 49 49 51 57 60 68 76 74 81 76 78 87 88 83 80 76 69 58 54 71 77 72 74 64 57 68 65 64 62 52 56 66 71 69 66 68 68 69 73
18 21 27 37 43 58 56 60 60 64 77 86 83 86 85 84 86 84 82 77 69 68 64 72 78 76 70 62 62 73 71 67 65 62 57 55 56 59 66 76 75 70 63 68
24 28 33 43 50 53 60 63 65 69 73 78 78 76 77 76 74 72 70 70 68 70 71 79 75 62 76 79 76 74 70 68 67 63 59 54 53 56 58 72 79 79 73 65
30 36 43 45 49 55 54 67 73 78 75 68 64 61 57 66 70 74 81 84 83 77 81 82 74 70 81 75 71 71 71 70 68 62 56 56 53 55 57 60 78 80 71 70
39 44 43 42 44 47 56 62 67 71 70 68 73 74 69 68 72 76 82 79 84 88 91 84 78 77 84 85 78 74 71 70 69 67 58 57 54 54 55 59 67 80 75 63
44 46 42 38 38 43 47 53 58 64 68 71 75 76 79 76 77 79 81 84 83 86 87 84 86 89 88 86 82 76 71 71 70 69 63 60 56 54 53 57 61 72 80 67
48 47 42 35 37 39 41 40 43 53 63 68 70 73 81 85 89 89 84 81 77 79 84 87 86 91 98 96 94 88 86 77 69 68 68 64 58 54 53 54 58 62 73 85
52 43 37 35 31 30 31 34 42 52 61 67 69 74 78 91 92 88 86 84 83 88 86 84 86 90 92 95 94 89 83 77 75 71 66 64 59 57 54 52 55 59 63 71

GFSNW_prec_cthk_216.txt.gz
RH
26 27 30 35 41 46 58 68 71 64 62 79 76 70 62 52 47 43 67 69 61 68 85 85 79 79 92 94 87 90 89 96 90 88 96 96 98 98 95 97 97 98 96 97
24 25 26 30 34 43 61 70 74 69 73 78 81 71 62 63 59 62 48 67 68 73 77 92 90 94 90 89 81 83 78 87 94 92 91 91 94 96 97 98 97 95 95 97
26 28 31 37 50 56 68 76 81 80 82 85 88 81 74 62 60 74 71 59 49 66 70 77 91 89 95 94 83 94 84 91 92 91 87 86 91 91 95 96 96 95 92 96
29 34 42 50 61 70 75 79 77 74 75 80 92 94 89 85 69 77 87 95 83 94 84 74 69 83 81 80 85 90 93 92 87 85 76 71 70 67 74 90 89 89 81 76
30 32 36 40 56 66 82 89 91 91 81 81 84 82 83 81 82 81 74 89 88 95 93 76 73 71 76 76 80 82 85 89 81 80 71 65 65 65 69 64 69 74 71 60
39 39 39 42 50 62 85 93 95 98 89 85 86 84 82 73 87 85 84 87 88 90 84 76 65 64 66 69 74 78 77 81 81 70 71 72 69 66 59 56 58 59 57 54
37 34 39 47 56 70 82 87 92 96 93 92 84 83 82 80 79 85 80 74 74 71 67 66 61 59 56 55 53 58 67 73 77 72 65 73 53 51 48 46 46 48 48 51
39 41 46 54 58 63 75 86 87 92 91 90 87 90 93 85 74 79 80 75 81 83 83 69 62 55 58 50 44 46 55 66 74 71 62 55 46 44 46 45 44 48 45 52
44 49 50 54 55 59 68 73 81 83 91 85 87 76 82 88 83 80 77 70 66 69 77 84 79 61 56 55 64 68 59 59 76 70 71 61 61 52 48 44 44 57 46 43
42 47 51 55 56 58 62 67 73 78 80 77 78 84 86 87 84 88 77 70 74 83 86 87 82 76 71 70 65 67 83 82 76 79 80 70 61 58 50 50 68 57 49 49
39 45 49 51 54 56 59 67 74 75 76 77 80 84 89 94 89 87 83 71 82 90 94 90 87 84 80 77 69 76 89 93 89 85 92 81 63 55 55 65 61 58 57 56
29 36 44 48 50 55 58 62 68 76 81 82 82 80 83 84 83 83 84 87 92 95 96 97 94 87 84 78 79 77 81 79 89 77 79 66 62 59 58 60 60 58 54 51
26 28 31 43 47 51 54 60 64 68 78 83 85 91 93 89 88 93 97 97 97 97 98 98 95 97 86 86 86 86 80 80 80 71 70 64 61 62 61 60 56 54 50 50
23 25 27 30 38 45 51 56 59 62 66 72 80 84 95 95 89 87 90 92 97 97 97 94 84 84 78 85 84 80 78 76 71 70 63 61 61 62 60 56 54 52 51 48
19 21 25 26 29 35 46 53 56 57 64 68 67 80 88 89 86 80 82 91 97 96 89 89 78 68 66 65 62 61 60 61 64 67 68 60 63 65 62 55 52 52 45 44
16 16 20 25 28 34 42 47 52 52 59 69 71 69 79 92 77 75 85 83 82 80 75 71 64 60 61 58 55 49 43 46 49 55 56 56 57 57 57 51 47 52 56 58
16 15 15 20 30 37 45 47 52 48 52 60 63 68 78 85 84 68 63 62 72 80 83 76 75 69 63 59 55 52 50 54 55 56 56 56 57 54 52 53 57 54 53 56
15 15 15 17 28 41 46 45 48 51 54 64 65 65 71 74 86 89 82 84 78 78 77 74 70 67 61 57 56 51 49 48 51 56 57 58 52 50 52 53 54 58 60 62
16 15 17 23 31 38 47 39 45 46 57 62 61 61 73 64 70 72 76 75 80 73 72 70 62 62 68 68 75 70 66 62 58 59 58 48 46 45 47 49 50 57 64 69
21 19 27 32 35 35 33 46 49 52 60 69 63 67 75 63 70 73 69 70 69 64 59 53 57 61 66 79 74 82 79 71 67 65 58 55 51 47 46 48 51 54 64 70
31 28 29 30 29 32 46 50 51 51 60 63 63 64 65 69 74 72 68 70 61 58 58 60 64 72 75 81 70 70 72 75 72 71 67 61 55 51 49 50 51 57 66 66
37 38 37 32 37 45 43 46 46 48 54 59 62 59 57 56 55 64 60 59 59 60 61 68 67 73 78 86 78 75 76 76 72 73 68 63 58 55 55 53 52 57 62 61
42 48 50 43 42 45 40 38 38 48 49 53 53 59 57 60 65 64 63 67 67 62 68 71 75 80 82 86 84 81 78 72 71 73 70 66 63 60 57 56 52 54 60 60
50 53 51 48 43 35 31 29 38 42 45 48 52 57 56 61 69 69 70 61 64 67 66 66 82 80 81 83 88 88 83 75 72 71 70 68 64 63 58 58 54 51 54 61
55 59 54 47 38 38 36 35 38 43 47 48 52 53 54 60 65 67 67 70 66 62 62 73 73 72 77 79 81 85 86 87 87 86 81 73 73 68 64 60 57 54 53 55
60 62 58 50 48 46 42 39 41 43 43 44 47 55 59 57 58 63 64 64 63 68 71 75 74 72 71 77 81 84 84 84 88 89 86 81 78 75 71 64 59 54 52 52
72 70 64 59 56 50 45 44 43 43 48 50 54 58 55 54 61 59 53 58 63 65 68 72 72 73 75 74 72 76 81 85 87 86 87 86 86 83 80 74 71 63 55 52

GFSNW_prec_cthk_219.txt.gz
RH
16 14 14 16 18 23 34 58 70 79 75 76 89 86 84 79 62 61 60 58 70 63 69 69 67 81 93 93 94 95 94 94 89 88 91 91 95 98 98 98 98 99 98 98
15 16 18 20 25 30 47 65 63 75 84 84 83 83 84 80 74 62 65 60 76 81 80 80 77 89 93 83 84 97 97 97 91 95 89 87 90 98 97 98 94 94 96 98
18 20 24 26 30 37 48 64 68 72 84 76 80 76 77 77 78 65 72 80 80 57 62 75 82 84 94 84 77 78 91 96 97 92 86 90 96 89 90 94 94 95 94 97
19 21 22 25 28 36 52 69 74 79 76 80 89 86 80 76 77 80 82 88 90 94 76 63 76 81 87 80 86 84 85 90 90 88 77 68 66 72 84 85 90 95 97 94
26 27 27 26 31 38 59 74 76 74 79 78 77 78 81 78 69 77 77 79 84 91 97 90 80 80 78 79 79 86 90 86 82 76 69 64 57 52 53 67 74 86 81 79
26 25 25 30 33 41 60 74 80 81 73 75 90 82 73 81 79 72 77 82 78 86 84 88 77 74 67 67 67 72 76 78 84 77 66 69 68 67 62 61 60 64 66 61
27 30 34 38 40 47 64 70 75 75 70 84 91 82 75 72 73 80 78 82 86 82 84 76 68 69 65 60 53 58 70 68 67 70 62 76 57 60 55 56 53 50 50 55
32 36 38 39 40 43 58 68 68 69 69 74 87 83 75 64 73 70 69 65 78 75 74 77 73 64 50 49 47 49 53 60 68 70 60 55 53 56 60 56 50 52 61 55
32 35 38 41 42 44 52 63 66 68 67 67 74 72 71 74 75 82 78 65 68 65 69 72 74 67 58 58 62 66 58 52 69 67 72 64 69 69 58 49 49 60 57 56
31 34 37 39 41 45 48 60 68 74 72 71 75 75 79 81 82 80 81 82 74 77 79 83 78 77 69 66 63 61 79 77 81 79 75 70 79 73 56 49 76 73 70 67
23 26 32 35 38 41 46 57 59 65 71 70 76 76 79 79 81 83 90 66 91 86 95 91 90 81 78 74 67 73 74 89 85 79 83 88 75 67 60 75 80 72 67 62
21 22 24 29 35 39 43 51 57 58 63 68 72 79 83 75 77 80 81 86 86 89 91 97 89 87 79 71 74 72 75 74 88 94 96 87 78 69 62 59 55 55 53 51
21 20 21 23 27 33 40 50 53 55 56 59 83 83 83 89 80 78 91 93 96 91 95 94 94 94 94 94 83 77 80 75 78 75 78 78 69 61 54 52 55 55 52 48
18 17 19 22 23 26 33 48 53 56 58 62 64 66 86 80 76 75 77 83 91 91 97 95 89 84 69 80 75 71 86 75 77 78 73 65 60 56 57 58 52 51 50 50
16 14 15 17 22 24 32 42 47 50 56 59 53 64 72 83 67 68 75 77 82 86 86 90 85 70 60 62 55 59 63 64 71 84 75 65 61 58 53 49 47 47 46 44
15 15 14 14 19 26 40 43 49 50 53 62 55 58 66 70 79 65 72 75 70 72 77 77 78 65 54 60 58 56 48 44 45 52 51 46 47 48 51 49 45 48 51 56
17 15 14 14 16 26 48 56 51 42 52 60 62 67 83 55 72 79 76 61 56 64 72 75 79 78 68 64 65 66 65 55 55 47 46 54 60 54 49 47 45 48 48 51
21 17 15 15 18 26 40 44 38 38 48 64 58 58 69 56 74 86 73 85 84 78 73 67 69 71 67 64 68 66 59 53 51 48 49 51 52 46 44 45 46 46 47 51
27 22 20 24 30 40 45 40 34 43 51 59 52 58 75 57 62 67 73 71 73 79 61 67 60 54 64 71 65 69 83 78 74 66 56 55 49 47 46 45 42 44 47 55
28 32 45 35 42 33 31 42 48 50 53 60 49 60 74 61 71 76 74 73 69 62 65 49 50 57 66 74 70 64 76 82 71 67 63 61 58 54 53 47 47 48 52 60
45 40 45 45 30 34 47 45 49 51 50 53 60 60 55 63 56 64 67 61 61 59 62 51 60 72 86 68 72 63 66 67 68 67 69 69 64 58 57 51 51 50 52 57
44 40 46 46 43 47 50 48 45 46 49 59 59 69 51 51 45 52 60 57 49 51 60 58 63 87 75 71 75 70 68 68 69 69 72 69 63 61 58 55 54 52 51 55
57 55 57 57 54 55 47 46 36 46 47 45 47 56 64 53 63 64 64 64 63 66 66 66 69 80 71 69 75 77 75 74 72 70 70 68 67 67 63 58 55 55 51 51
60 61 61 56 57 45 41 35 40 48 47 52 50 56 62 66 62 64 71 59 60 58 61 51 77 80 67 65 68 74 79 82 81 80 78 78 72 70 67 65 58 56 54 51
60 61 62 54 48 48 47 43 42 41 42 53 58 55 57 60 65 58 59 65 60 53 54 80 79 69 65 60 60 68 72 74 74 76 79 81 81 78 73 68 64 60 56 52
62 60 64 58 55 56 53 50 51 53 52 50 48 53 58 56 54 56 60 51 51 57 72 72 66 60 61 60 60 61 63 68 73 76 77 77 77 78 79 81 76 68 62 56
59 61 60 61 66 66 65 60 57 61 61 59 58 64 58 56 58 56 50 57 66 75 76 59 52 49 50 49 49 51 53 58 62 65 69 74 78 83 85 86 86 82 74 66